Location: *
(50.9167°S, 179.4000°W)
Time: 04:23:47
(UTC+00:00)

ATLAS 2AS CENTAUR R/B - Pass Details

Date: 26 June 2024
Orbit: 1019 x 1192 km, 63.7° (Epoch: 21 July)

Event Time Altitude Azimuth Distance (km) Brightness Sun altitude
Exits shadow 18:42:08 12° 224° (SW) 2,912 4.4 -11.7°
Maximum altitude 18:49:05 85° 311° (NW) 1,186 2.9 -10.7°
Drops below altitude 10° 18:56:37 10° 38° (NE) 3,119 6.3 -9.6°
Sets 18:59:21 0° 38° (NE) 4,084 7.0 -9.2°
